This is the latest recevied weather packets stored in our database for station/object KB8TTR. If no packets are shown the sender has not sent any weather packets the latest 10 day(s).
| Time | Temp. | Humidity | Pressure | Rain* | Wind** | Luminosity | Snow |
|---|---|---|---|---|---|---|---|
| 1787770930 | 28.33° C | 50% | 1015 hPa | 0 mm | - | 766 W/m² | - |
| 1787770629 | 27.78° C | 51% | 1015.4 hPa | 0 mm | - | 772 W/m² | - |
| 1787770324 | 28.33° C | 50% | 1015.4 hPa | 0 mm | - | 762 W/m² | - |
| 1787770022 | 28.33° C | 53% | 1015.4 hPa | 0 mm | - | 824 W/m² | - |
| 1787769717 | 27.78° C | 50% | 1015.4 hPa | 0 mm | - | 811 W/m² | - |
| 1787769416 | 27.78° C | 52% | 1015.5 hPa | 0 mm | - | 837 W/m² | - |
| 1787769111 | 27.78° C | 54% | 1015.5 hPa | 0 mm | - | 799 W/m² | - |
| 1787768805 | 27.78° C | 52% | 1015.5 hPa | 0 mm | - | 282 W/m² | - |
| 1787768502 | 28.33° C | 52% | 1015.5 hPa | 0 mm | - | 310 W/m² | - |
| 1787768198 | 28.33° C | 52% | 1015.4 hPa | 0 mm | - | 836 W/m² | - |
| 1787767893 | 27.78° C | 52% | 1015.6 hPa | 0 mm | - | 854 W/m² | - |
| 1787767589 | 27.78° C | 52% | 1015.7 hPa | 0 mm | - | 609 W/m² | - |
| 1787767287 | 27.78° C | 51% | 1015.7 hPa | 0 mm | - | 587 W/m² | - |
| 1787766986 | 27.22° C | 53% | 1015.8 hPa | 0 mm | - | 943 W/m² | - |
| 1787766680 | 27.78° C | 52% | 1015.8 hPa | 0 mm | - | 976 W/m² | - |
| 1787766380 | 27.78° C | 52% | 1015.8 hPa | 0 mm | - | 866 W/m² | - |
| 1787766080 | 27.22° C | 52% | 1015.9 hPa | 0 mm | - | 879 W/m² | - |
| 1787765776 | 27.22° C | 53% | 1016.2 hPa | 0 mm | - | 846 W/m² | - |
| 1787765472 | 27.22° C | 52% | 1016.1 hPa | 0 mm | - | 879 W/m² | - |
| 1787765171 | 27.78° C | 52% | 1016.3 hPa | 0 mm | - | 836 W/m² | - |
| 1787764866 | 27.78° C | 53% | 1016.2 hPa | 0 mm | - | 754 W/m² | - |
| 1787764561 | 27.22° C | 52% | 1016.4 hPa | 0 mm | - | 855 W/m² | - |
* Rain latest hour (hover to see other rain measurements)
** Current wind speed in m/s (hover to see current wind gust speed)